Location: Henau
(47.4548°N, 9.1164°E)
Time: 08:45:53
(UTC+00:00)

OBJECT-B - Pass Details

Date: 03 March 2021
Orbit: 414 x 427 km, 97.0° (Epoch: 11 April)

Event Time Altitude Azimuth Distance (km) Brightness Sun altitude
Exits shadow 18:05:12 12° 66° (ENE) 1,381 2.8 -9.8°
Maximum altitude 18:05:17 12° 64° (ENE) 1,380 2.8 -9.9°
Drops below altitude 10° 18:06:40 10° 38° (NE) 1,514 3.2 -10.1°
Sets 18:09:38 0° 8° (N) 2,382 4.5 -10.6°
